Miscellaneous Local Product
Issued by NWS North Platte, NE

Home | Current Version | Previous Version | Text Only | Print | Product List | Glossary On
Versions: 1 2 3 4 5 6 7 8 9 10 11 12 13 14 15 16 17 18 19 20 21 22 23 24 25 26 27 28 29 30 31 32 33 34 35 36 37 38 39 40 41 42 43 44 45 46 47 48 49 50
373
AXUS43 KLBF 222010
MISLBF


WESTERN AND NORTH CENTRAL NEBRASKA HOURLY WEATHER ROUNDUP
NATIONAL WEATHER SERVICE NORTH PLATTE NE
200 PM CST SUN JAN 22 2017

NOTE: "FAIR" INDICATES FEW OR NO CLOUDS BELOW 12,000 FEET WITH NO
SIGNIFICANT WEATHER AND/OR OBSTRUCTIONS TO VISIBILITY.

NOTE: STATIONS NOT REPORTING VARIABLES SUCH AS SKY/WEATHER OR
PRESSURE ARE PROVIDED BY RAWS AND APRS NETWORKS AND ARE NOT UNDER
NATIONAL WEATHER SERVICE QUALITY CONTROL.

...OBSERVATIONS IN AND NEAR THE EASTERN PANHANDLE OF NEBRASKA...

CITY           SKY/WX    TMP DP  RH WIND       PRES   REMARKS
PINE RIDGE     PTSUNNY   37  27  67 W8        29.86F WCI  31
CHADRON        SUNNY     38  28  67 NW16      29.87F WCI  29
ALLIANCE       SUNNY     45  24  43 W18       29.85F
SIDNEY         SUNNY     45  20  36 NW20      29.88F
CRESCENT LAKE    N/A     44  24  45 NW13        N/A
$$

...OBSERVATIONS IN NORTHERN NEBRASKA AND FAR SOUTHERN SOUTH DAKOTA...

CITY           SKY/WX    TMP DP  RH WIND       PRES   REMARKS
WINNER         FAIR      40  29  64 NW14      29.84S WCI  32
VALENTINE      SUNNY     42  27  55 NW14      29.83S
THEDFORD       SUNNY     49  28  44 NW10      29.83S
AINSWORTH      SUNNY     44  29  55 NW14      29.82S
O`NEILL        SUNNY     44  30  58 NW10      29.81F
ORD            SUNNY     46  30  53 NW14      29.80F
BROKEN BOW     SUNNY     47  31  53 NW13      29.81F
VALENTINE NWR    N/A     44  26  48 NW13        N/A
BUTTE            N/A     41  29  61 W9          N/A
HALSEY           N/A     48  27  43 NW7         N/A
SARGENT          N/A     47  32  56 W5G13       N/A
CHAMBERS         N/A     46  29  51 N3          N/A
EWING            N/A     42  30  63 NW12        N/A
$$

...OBSERVATIONS IN SOUTHWEST NEBRASKA AND FAR NORTHEAST COLORADO...

CITY           SKY/WX    TMP DP  RH WIND       PRES   REMARKS
WRAY           FAIR      48  25  40 NW13G18   29.90F
HOLYOKE        FAIR      52  25  35 NW17      29.88F
IMPERIAL       SUNNY     46  26  45 NW15      29.87F
OGALLALA       SUNNY     46  29  51 NW14      29.86F
NORTH PLATTE   SUNNY     48  30  49 W12       29.85F
MCCOOK         SUNNY     49  27  42 NW15      29.86F
LEXINGTON      SUNNY     48  31  51 NW12      29.84S
STAPLETON        N/A     48  29  47 CALM        N/A
GOTHENBURG       N/A     47  25  42 NW9         N/A
CALLAWAY         N/A     47  31  54 NW12        N/A
$$

...OBSERVATIONS IN CENTRAL LINCOLN COUNTY AREA...

CITY           SKY/WX    TMP DP  RH WIND       PRES   REMARKS
N.P. AIRPORT   SUNNY     48  30  49 W12       29.85F
N.P. DOWNTOWN    N/A     46  32  58 W6G13       N/A
N.P. SOUTHEAST   N/A     47  32  55 NW5G12      N/A
N.P. HILLCREST   N/A     47  31  53 W10G17      N/A
$$

...SOME OBSERVATIONS FROM AROUND THE REGION...

CITY           SKY/WX    TMP DP  RH WIND       PRES   REMARKS
LARAMIE        SUNNY     27  14  58 SW5       29.88F WCI  22
CHEYENNE       SUNNY     37   8  30 W25G35    29.89F WCI  25
DENVER         MOSUNNY   45   6  20 W9        29.89F
AKRON          SUNNY     43  16  33 NW17      29.89F
SCOTTSBLUFF    SUNNY     45  20  36 W16       29.88F
RAPID CITY     SUNNY     39  26  59 SE6       29.83F WCI  35
BISMARCK       CLOUDY    33  29  85 NW10      29.80S WCI  25
PIERRE         CLOUDY    28  24  85 W16       29.84F WCI  16
SIOUX FALLS    CLOUDY    32  29  88 NW13      29.80S FOG     WCI  22
OMAHA          CLOUDY    37  31  78 N8        29.80R WCI  31
GRAND ISLAND   SUNNY     46  30  53 N13       29.82F
KANSAS CITY    CLOUDY    34  29  82 NW16G23   29.72R WCI  24
WICHITA        MOSUNNY   52  30  43 N24       29.77S
OKLAHOMA CITY  MOSUNNY   57  37  47 N26G39    29.74R
DALLAS         PTSUNNY   64  44  48 N29G40    29.66S
AMARILLO       SUNNY     55  30  38 N16G24    29.94S
DODGE CITY     SUNNY     51  31  46 NW18G28   29.86F
HAYS           SUNNY     51  25  36 N17G24    29.84F
GOODLAND       SUNNY     47  26  44 N16       29.88F
$$




USA.gov is the U.S. government's official web portal to all federal, state and local government web resources and services.